Tracking 17557 objects as of 9-February-2016
HD Live streaming from Space Station
objects crossing your sky now

BREEZE-M R/B

Track BREEZE-M R/B now!


NORAD ID: 28925
Int'l Code: 2005-052B
Perigee: 6,200.2 km
Apogee: 35,341.7 km
Inclination: 19.3 °
Period: 741.7 minutes
Semi major axis: 27141 km
RCS: 0.6439 m2 (medium)
Launch date: December 29, 2005
Source: Commonwealth of Independent States (former USSR) (CIS)
Launch site: TYURATAM MISSILE AND SPACE COMPLEX (TTMTR)

Note: This is a ROCKET BODY
Your satellite tracking list
Your tracking list is empty





NASA's NSSDC Master Catalog

Two Line Element Set (TLE):
1 28925U 05052B   16038.75826106 -.00000136 +00000-0 +00000-0 0  9992
2 28925 019.3268 056.3288 5368342 095.3394 041.2869 01.9415167171624
Source of the keplerian elements: AFSPC

N2YO: 1274